Location: Newark
(46.7000°N, 60.6000°W)
Time: 05:38:52
(UTC+00:00)

Transit 2A Rocket - Pass Details

Date: 04 November 2020
Orbit: 588 x 914 km, 66.7° (Epoch: 29 November)

Event Time Altitude Azimuth Distance (km) Brightness Sun altitude
Rises 17:47:27 0° 327° (NNW) 3,381 8.1 21.9°
Reaches altitude 10° 17:51:42 10° 357° (N) 2,362 7.1 21.5°
Maximum altitude 17:53:50 12° 20° (NNE) 2,164 6.9 21.3°
Drops below altitude 10° 17:55:54 10° 44° (NE) 2,271 6.9 21.1°
Sets 17:59:47 0° 75° (ENE) 3,103 7.7 20.8°
